Find Nadezhda

NORAD ID: 26384 Int'l Des: 2000-033 Owner: VMFR/VKSR Country: RU operational
LEOCIRCULARRETROGRADESSO

当前视图

正在加载3D地球...

关于 Nadezhda

正在加载描述...

即将过境

Passes for default location (London). Set your location on the main map for personalized predictions.

高度历史

Loading altitude history...

两行轨道根数

1 26384U 00033A 26150.95209501 .00000980 00000-0 16598-3 0 9993
2 26384 97.8406 126.8341 0014286 52.2907 307.9593 14.71327969385652
Epoch: May 30, 2026 • Age: 15 hours

当前状态

高度 662.3 km
速度 7.53 km/s
星下点 34.35°N, 149.22°W
发射日期 Jun 28, 2000
运行时间 25.9 years
类型 other

技术详情

分类 Payload
质量 870.00 kg
干质量 870.00 kg
总质量 870.00 kg
长度 5.00 m
直径 2.10 m
跨度 17.00 m
形状 Cyl + Ant
制造商 POL
平台类型 KAUR-1 17F118
阶段状态 In Orbit
所有者/国家 VMFR/VKSR/RU

Most Searched